Regional Weather Roundup
Issued by NWS

Home | Current Version | Previous Version | Text Only | Print | Product List | Glossary On
Versions: 1 2 3 4 5 6 7 8 9 10 11 12 13 14 15 16 17 18 19 20 21 22 23 24 25 26 27
000
ASUS45 KPSR 252210
RWRAZ

ARIZONA HOURLY REGIONAL WEATHER ROUNDUP
NATIONAL WEATHER SERVICE PHOENIX AZ
300 PM MST SAT MAR 25 2017

NOTE: FAIR INDICATES FEW OR NO CLOUDS BELOW 12,000 FEET WITH NO
SIGNIFICANT WEATHER AND/OR OBSTRUCTIONS TO VISIBILITY.

AZZ001>003-036-252300-
NORTHWEST ARIZONA

CITY           SKY/WX    TMP DP  RH WIND       PRES   REMARKS
BULLHEAD CITY  SUNNY     79  37  22 N10       29.85F
KINGMAN        PTSUNNY   64  23  21 SW10G16   29.94F
$$

AZZ004>008-015-016-018-252300-
NORTH CENTRAL ARIZONA

CITY           SKY/WX    TMP DP  RH WIND       PRES   REMARKS
GRAND CANYON   CLOUDY    53  30  41 SW20G29   29.96F
WILLIAMS       PTSUNNY   46  34  61 SW15G23   30.00S
PRESCOTT       MOSUNNY   60  33  36 SW17      29.98F
FLAGSTAFF      PTSUNNY   45  32  60 SW13G21   30.00F
PAYSON         CLOUDY    59  34  38 SW13      30.02F
PAGE           PTSUNNY   59  41  51 VRB5      29.88F
$$

AZZ009>014-017-252300-
NORTHEAST ARIZONA

CITY           SKY/WX    TMP DP  RH WIND       PRES   REMARKS
WINSLOW        MOSUNNY   68  30  24 SW26G37   29.92F
SAINT JOHNS    SUNNY     69  15  12 SW22G33   29.91F
WINDOW ROCK    MOSUNNY   62  18  18 W18G28    29.95F
SHOW LOW       SUNNY     59  23  25 S25G33    30.00F
$$

AZZ023-252300-
GREATER PHOENIX AREA

CITY           SKY/WX    TMP DP  RH WIND       PRES   REMARKS
PHOENIX        MOSUNNY   82  31  15 W17G25    29.85F
BUCKEYE        SUNNY     81  28  15 W7G16     29.87F
GLENDALE       MOSUNNY   81  32  17 S12G18    29.88F
LUKE AFB       SUNNY     81  29  14 SW18G25   29.85F
DEER VALLEY    MOSUNNY   78  31  17 SW20      29.87F
SCOTTSDALE     MOSUNNY   79  30  16 SW10G17   29.89F
MESA-FALCON    MOSUNNY  N/A N/A N/A S12G18    29.85F
MESA-GATEWAY   MOSUNNY   79  28  15 SW8       29.89F
$$

AZZ027-028-252300-
SOUTHWEST MARICOPA COUNTY AND PINAL COUNTY

CITY           SKY/WX    TMP DP  RH WIND       PRES   REMARKS
CASA GRANDE    NOT AVBL
GILA BEND      FAIR      82  24  12 SW20G29   29.86F
$$

AZZ503-504-507>509-252300-
SOUTHEAST ARIZONA

CITY           SKY/WX    TMP DP  RH WIND       PRES   REMARKS
TUCSON         SUNNY     80  23  12 W9G23     29.92F
DAVIS-MONTHAN  SUNNY     79  24  13 NW9G18    29.91F
RYAN FIELD     SUNNY     81  27  13 W7G28     29.92F
NOGALES        SUNNY     80  19  10 SW15G23   29.97F
SIERRA VISTA   SUNNY     76  13   9 SW20G30   29.98F
DOUGLAS        SUNNY     80  11   7 W23G29    29.94F
SAFFORD        SUNNY     78  23  13 VRB6      29.87F
$$

AZZ020-021-025-026-031-252300-
SOUTHWEST ARIZONA

CITY           SKY/WX    TMP DP  RH WIND       PRES   REMARKS
YUMA           SUNNY     81  37  20 NW18G30   29.89F
$$

CAZ031-033-041-043-047-048-061-252300-
SOUTHERN CALIFORNIA

CITY           SKY/WX    TMP DP  RH WIND       PRES   REMARKS
DOWNTOWN L.A.  MOSUNNY   66  54  65 VRB7      30.05F
L.A. AIRPORT   PTSUNNY   64  56  75 SW13      30.06F
SAN DIEGO      PTSUNNY   67  50  54 W10       30.09F
BURBANK        PTSUNNY   67  49  52 S10       30.02F
ONTARIO        PTSUNNY   68  50  52 SW13      30.03F
RIVERSIDE      MOSUNNY   69  50  50 W13G21    30.03F
PALM SPRINGS   MOSUNNY   82  25  12 NW23G29   29.90F
EL CENTRO NAS  MOSUNNY   83  35  18 W24       29.92F
IMPERIAL       SUNNY     81  43  26 W18G28    29.89F
BLYTHE         SUNNY     83  30  14 W15G21    29.87F
NEEDLES        SUNNY     81  32  17 W14       29.86F
$$

NVZ020-UTZ003-252300-
SOUTHERN NEVADA-UTAH

CITY           SKY/WX    TMP DP  RH WIND       PRES   REMARKS
LAS VEGAS      MOSUNNY   70  32  24 NW17G23   29.92F
SALT LAKE CITY LGT RAIN  42  38  85 CALM      29.99F
$$

NMZ009-TXZ055-252300-
NEW MEXICO-WEST TEXAS

CITY           SKY/WX    TMP DP  RH WIND       PRES   REMARKS
ALBUQUERQUE    CLOUDY    67  18  15 S9        29.91F
EL PASO        PTSUNNY   79   8   6 SW9       29.92F
$$


........................KEY........................
SKY/WX - SKY CONDITION/WEATHER
TMP    - TEMPERATURE IN FAHRENHEIT
DP     - DEW POINT IN FAHRENHEIT
RH     - RELATIVE HUMIDITY IN PERCENT
WIND   - DIRECTION AND SPEED IN MILES PER HOUR (MPH)
VRB    - VARIABLE WIND DIRECTION
PRES   - MEAN SEA LEVEL PRESSURE IN INCHES OF MERCURY
         F - FALLING PRESSURE   R - RISING PRESSURE
         S - STEADY PRESSURE
VSB    - VISIBILITY IN MILES
HX     - HEAT INDEX IN FAHRENHEIT
WCI    - WIND CHILL INDEX IN FAHRENHEIT
TC     - TEMPERATURE IN CELSIUS WHICH IS ALSO KNOWN AS
         TEMPERATURE IN CENTIGRADE
AFB    - AIR FORCE BASE
         LUKE AFB IS LUKE AIR FORCE BASE
         DAVIS-MONTHAN IS DAVIS-MONTHAN AIR FORCE BASE
NAS    - NAVAL AIR STATION
         EL CENTRO NAS IS EL CENTRO NAVAL AIR STATION
N/A    - NOT AVAILABLE





USA.gov is the U.S. government's official web portal to all federal, state and local government web resources and services.